Weather History for Worland, WY

Change the Weather History Date:

Friday, May 31, 2013

  Actual Average Record
Temperature  
Mean Temperature 54 °F 60 °F  
Max Temperature 60 °F 75 °F 93 °F (1986)
Min Temperature 47 °F 45 °F 37 °F (1982)
Degree Days  
Heating Degree Days 11 6  
Month to date heating degree days 242 308  
Since 1 July heating degree days 7421 7776  
Cooling Degree Days 0 1  
Month to date cooling degree days 17 11  
Year to date cooling degree days 17 12  
Growing Degree Days 2 (Base 50)    
Moisture  
Dew Point 39 °F    
Average Humidity 61    
Maximum Humidity 74    
Minimum Humidity 47    
Precipitation  
Precipitation 0.00 in 0.05 in 0.45 in (1995)
Month to date precipitation 1.12 1.42  
Year to date precipitation 2.69 3.16  
Sea Level Pressure  
Sea Level Pressure 29.95 in    
Wind  
Wind Speed 13 mph (North)    
Max Wind Speed 32 mph    
Max Gust Speed 43 mph    
Visibility 10 miles    
Events      
T = Trace of Precipitation, MM = Missing Value Source: NWS Daily Summary

Daily Weather History Graph

Daily Weather History Graph

Search for Another Location

Airport:

Trip Planner

Search our weather history database for the weather conditions in past years. The results will help you decide how hot, cold, wet, or windy it might be!

Date:

Astronomy

May. 31, 2013 Rise Set
Actual Time 5:32 AM MDT 8:47 PM MDT
Civil Twilight 4:57 AM MDT 9:22 PM MDT
Nautical Twilight 4:11 AM MDT 10:08 PM MDT
Astronomical Twilight 3:15 AM MDT 11:04 PM MDT
Moon 1:13 AM MDT (5/31) 1:01 PM MDT (5/31)
Length of Visible Light 16h 25m
Length of Day
15h 14m
Waning Gibbous, 51% of the Moon is Illuminated
May 31
Waning Gibbous
May 31
Last Quarter
Jun 8
New
Jun 16
First Quarter
Jun 23
Full

Hourly Weather History & Observations

Time (MDT) Temp. Dew Point Humidity Pressure Visibility Wind Dir Wind Speed Gust Speed Precip Events Conditions
12:53 AM 50.0 °F 41.0 °F 71% 29.80 in 10.0 mi Calm Calm - N/A   Scattered Clouds
1:53 AM 50.0 °F 42.1 °F 74% 29.80 in 10.0 mi West 4.6 mph - N/A   Overcast
2:53 AM 50.0 °F 39.0 °F 66% 29.81 in 10.0 mi North 4.6 mph - N/A   Overcast
3:53 AM 50.0 °F 37.0 °F 61% 29.81 in 10.0 mi NNW 6.9 mph - N/A   Overcast
4:53 AM 48.9 °F 37.0 °F 64% 29.82 in 10.0 mi North 6.9 mph - N/A   Overcast
5:53 AM 46.9 °F 37.9 °F 71% 29.84 in 10.0 mi NNE 3.5 mph - N/A   Overcast
6:53 AM 48.0 °F 37.9 °F 68% 29.85 in 10.0 mi North 5.8 mph - N/A   Overcast
7:53 AM 48.0 °F 39.0 °F 71% 29.88 in 10.0 mi North 6.9 mph - N/A   Scattered Clouds
8:53 AM 50.0 °F 39.0 °F 66% 29.89 in 10.0 mi North 10.4 mph - N/A   Overcast
9:53 AM 51.1 °F 39.9 °F 66% 29.90 in 10.0 mi NNE 10.4 mph - N/A   Overcast
10:53 AM 52.0 °F 39.0 °F 61% 29.91 in 10.0 mi North 13.8 mph 20.7 mph N/A   Overcast
3:53 PM 55.9 °F 41.0 °F 57% 29.96 in 10.0 mi NNE 12.7 mph 17.3 mph N/A   Overcast
4:53 PM 57.9 °F 37.0 °F 46% 29.97 in 10.0 mi North 15.0 mph 27.6 mph N/A   Overcast
5:53 PM 57.0 °F 37.0 °F 47% 30.01 in 10.0 mi North 21.9 mph 28.8 mph N/A   Overcast
6:53 PM 55.0 °F 37.9 °F 53% 30.04 in 10.0 mi North 16.1 mph 29.9 mph N/A   Overcast
7:53 PM 53.1 °F 37.9 °F 57% 30.07 in 10.0 mi North 18.4 mph 42.6 mph N/A   Overcast
8:53 PM 50.0 °F 39.9 °F 68% 30.12 in 10.0 mi North 21.9 mph 36.8 mph N/A   Overcast
9:53 PM 48.9 °F 39.9 °F 71% 30.16 in 10.0 mi North 16.1 mph 26.5 mph N/A   Overcast
10:53 PM 50.0 °F 39.0 °F 66% 30.17 in 10.0 mi North 20.7 mph 34.5 mph N/A   Overcast
11:53 PM 50.0 °F 37.9 °F 63% 30.17 in 10.0 mi NNW 23.0 mph 33.4 mph N/A   Overcast